User: anonymous   Login
Location: Newark
(51.0000°N, 11.4100°E)
Time: 09:07:28
(UTC+00:00)
Language:

NUDT-PHONESAT - Orbit

View from above orbital plane
View from above orbital plane
View from above satellite
View from above satellite

Ground track
Ground track

The orbit data is extracted from the following two-line orbital elements,

1 40900U 15049B   19342.16763113  .00001630  00000-0  71510-4 0  9997
2 40900  97.4360 349.8540 0011380 304.1147 121.5137 15.23365402233919
Epoch (UTC): 08 December 2019 04:01:23
Eccentricity: 0.0011380
inclination: 97.4360°
perigee height: 488 km
apogee height: 503 km
right ascension of ascending node: 349.8540°
argument of perigee: 304.1147°
revolutions per day: 15.23365402
mean anomaly at epoch: 121.5137°
orbit number at epoch: 23391

The dashed part of the orbit path shows where the satellite is in the earth's shadow,  

DLR